Meteo pe oră la Bolshie Pady

Astăzi, 9 Mai, Duminică

Timp Temperatura Precipitaţii Vânt Presiune Umiditate
00:00 +13°C° 0.7 mm 5 m/s 743 mmHg 95%
01:00 +12°C° 0.4 mm 4 m/s 743 mmHg 96%
02:00 +12°C° 0.4 mm 3 m/s 743 mmHg 96%
03:00 +13°C° 0 mm 2 m/s 742 mmHg 97%
04:00 +11°C° 0.8 mm 3 m/s 742 mmHg 97%
05:00 +11°C° 0.8 mm 3 m/s 742 mmHg 97%
06:00 +11°C° 0.8 mm 3 m/s 742 mmHg 98%
07:00 +10°C° 0.5 mm 4 m/s 742 mmHg 96%
08:00 +8°C° 0.5 mm 5 m/s 743 mmHg 95%
09:00 +7°C° 0 mm 5 m/s 743 mmHg 94%
10:00 +7°C° 1.2 mm 5 m/s 744 mmHg 94%
11:00 +7°C° 1.2 mm 4 m/s 744 mmHg 94%
12:00 +8°C° 1.2 mm 3 m/s 744 mmHg 94%
13:00 +7°C° 0.5 mm 4 m/s 745 mmHg 93%
14:00 +7°C° 0.5 mm 5 m/s 746 mmHg 91%
15:00 +7°C° 0.5 mm 6 m/s 746 mmHg 90%
16:00 +5°C° 0.1 mm 6 m/s 747 mmHg 91%
17:00 +4°C° 0.1 mm 6 m/s 748 mmHg 92%
18:00 +3°C° 0.1 mm 6 m/s 749 mmHg 93%
19:00 +3°C° 0 mm 6 m/s 749 mmHg 92%
20:00 +3°C° 0 mm 5 m/s 750 mmHg 91%
21:00 +3°C° 0 mm 5 m/s 750 mmHg 90%
22:00 +3°C° 0 mm 5 m/s 750 mmHg 91%
23:00 +3°C° 0 mm 5 m/s 751 mmHg 92%

Mâine, 10 Mai, Luni

Timp Temperatura Precipitaţii Vânt Presiune Umiditate
00:00 +3°C° 0 mm 5 m/s 751 mmHg 93%
01:00 +3°C° 0 mm 5 m/s 751 mmHg 95%
02:00 +3°C° 0 mm 5 m/s 751 mmHg 96%
03:00 +3°C° 0 mm 5 m/s 751 mmHg 97%
04:00 +3°C° 0 mm 5 m/s 751 mmHg 96%
05:00 +3°C° 0 mm 5 m/s 752 mmHg 95%
06:00 +3°C° 0 mm 6 m/s 752 mmHg 95%
07:00 +3°C° 0 mm 6 m/s 752 mmHg 94%
08:00 +4°C° 0 mm 6 m/s 752 mmHg 93%
09:00 +4°C° 0 mm 7 m/s 752 mmHg 93%
10:00 +4°C° 0.4 mm 7 m/s 752 mmHg 93%
11:00 +4°C° 0.4 mm 8 m/s 752 mmHg 94%
12:00 +4°C° 0.4 mm 8 m/s 752 mmHg 94%
13:00 +5°C° 0.4 mm 9 m/s 752 mmHg 94%
14:00 +5°C° 0.4 mm 9 m/s 752 mmHg 93%
15:00 +6°C° 0.4 mm 9 m/s 751 mmHg 93%
16:00 +6°C° 0.1 mm 9 m/s 751 mmHg 93%
17:00 +7°C° 0.1 mm 9 m/s 751 mmHg 92%
18:00 +7°C° 0.1 mm 9 m/s 751 mmHg 92%
19:00 +7°C° 0 mm 9 m/s 751 mmHg 91%
20:00 +8°C° 0 mm 9 m/s 751 mmHg 90%
21:00 +8°C° 0 mm 9 m/s 751 mmHg 90%
22:00 +9°C° 0 mm 8 m/s 751 mmHg 90%
23:00 +9°C° 0 mm 8 m/s 751 mmHg 91%

Poimâine, 11 Mai, Marţi

Timp Temperatura Precipitaţii Vânt Presiune Umiditate
00:00 +9°C° 0 mm 8 m/s 751 mmHg 92%
01:00 +9°C° 0 mm 8 m/s 751 mmHg 91%
02:00 +9°C° 0 mm 8 m/s 751 mmHg 91%
03:00 +10°C° 0 mm 8 m/s 751 mmHg 91%
04:00 +10°C° 0 mm 7 m/s 751 mmHg 91%
05:00 +10°C° 0 mm 7 m/s 752 mmHg 90%
06:00 +10°C° 0 mm 6 m/s 752 mmHg 90%
07:00 +9°C° 0.3 mm 5 m/s 753 mmHg 91%
08:00 +9°C° 0.3 mm 5 m/s 754 mmHg 92%
09:00 +8°C° 0.3 mm 4 m/s 754 mmHg 93%
10:00 +11°C° 0.1 mm 4 m/s 755 mmHg 83%
11:00 +12°C° 0.1 mm 5 m/s 755 mmHg 73%
12:00 +14°C° 0.1 mm 6 m/s 755 mmHg 63%
13:00 +15°C° 0 mm 6 m/s 756 mmHg 59%
14:00 +15°C° 0 mm 6 m/s 756 mmHg 55%
15:00 +16°C° 0 mm 6 m/s 756 mmHg 52%
16:00 +16°C° 0 mm 6 m/s 756 mmHg 56%
17:00 +15°C° 0 mm 5 m/s 756 mmHg 61%
18:00 +15°C° 0 mm 4 m/s 757 mmHg 65%
19:00 +13°C° 0 mm 3 m/s 757 mmHg 71%
20:00 +13°C° 0 mm 2 m/s 757 mmHg 77%
21:00 +11°C° 0 mm 1 m/s 757 mmHg 82%
22:00 +11°C° 0 mm 1 m/s 757 mmHg 84%
23:00 +10°C° 0 mm 2 m/s 757 mmHg 85%

12 Mai, Miercuri

Timp Temperatura Precipitaţii Vânt Presiune Umiditate
00:00 +9°C° 0 mm 2 m/s 757 mmHg 87%
01:00 +9°C° 0 mm 2 m/s 757 mmHg 87%
02:00 +9°C° 0 mm 2 m/s 757 mmHg 88%
03:00 +8°C° 0 mm 2 m/s 756 mmHg 89%
04:00 +9°C° 0 mm 2 m/s 756 mmHg 90%
05:00 +9°C° 0 mm 3 m/s 756 mmHg 90%
06:00 +9°C° 0 mm 3 m/s 756 mmHg 91%
07:00 +10°C° 0 mm 3 m/s 756 mmHg 89%
08:00 +11°C° 0 mm 3 m/s 756 mmHg 87%
09:00 +12°C° 0 mm 3 m/s 756 mmHg 85%
10:00 +12°C° 0.2 mm 3 m/s 756 mmHg 86%
11:00 +13°C° 0.2 mm 3 m/s 755 mmHg 86%
12:00 +13°C° 0.2 mm 3 m/s 755 mmHg 87%
13:00 +13°C° 0.1 mm 3 m/s 755 mmHg 88%
14:00 +13°C° 0.1 mm 3 m/s 755 mmHg 89%
15:00 +13°C° 0.1 mm 3 m/s 754 mmHg 91%
16:00 +14°C° 0.1 mm 3 m/s 754 mmHg 90%
17:00 +14°C° 0.1 mm 3 m/s 754 mmHg 90%
18:00 +14°C° 0.1 mm 3 m/s 754 mmHg 89%
19:00 +14°C° 0 mm 3 m/s 754 mmHg 90%
20:00 +14°C° 0 mm 3 m/s 754 mmHg 91%
21:00 +13°C° 0 mm 3 m/s 754 mmHg 92%
22:00 +13°C° 0 mm 3 m/s 754 mmHg 92%
23:00 +13°C° 0 mm 3 m/s 754 mmHg 93%

13 Mai, Joi

Timp Temperatura Precipitaţii Vânt Presiune Umiditate
00:00 +12°C° 0 mm 3 m/s 754 mmHg 93%
01:00 +12°C° 0 mm 3 m/s 754 mmHg 93%
02:00 +13°C° 0 mm 2 m/s 754 mmHg 94%
03:00 +13°C° 0 mm 2 m/s 754 mmHg 94%
04:00 +13°C° 0 mm 2 m/s 754 mmHg 94%
05:00 +13°C° 0 mm 2 m/s 754 mmHg 93%
06:00 +13°C° 0 mm 2 m/s 754 mmHg 93%
07:00 +15°C° 0 mm 2 m/s 754 mmHg 86%
08:00 +17°C° 0 mm 2 m/s 754 mmHg 79%
09:00 +19°C° 0 mm 3 m/s 754 mmHg 72%
10:00 +20°C° 0 mm 3 m/s 753 mmHg 68%
11:00 +21°C° 0 mm 3 m/s 753 mmHg 64%
12:00 +22°C° 0 mm 3 m/s 753 mmHg 60%
13:00 +22°C° 0 mm 3 m/s 753 mmHg 63%
14:00 +22°C° 0 mm 3 m/s 753 mmHg 66%
15:00 +22°C° 0 mm 3 m/s 753 mmHg 69%
16:00 +21°C° 0.1 mm 3 m/s 753 mmHg 70%
17:00 +21°C° 0.1 mm 3 m/s 753 mmHg 72%
18:00 +21°C° 0.1 mm 3 m/s 752 mmHg 73%
19:00 +20°C° 0 mm 3 m/s 752 mmHg 78%
20:00 +19°C° 0 mm 3 m/s 752 mmHg 82%
21:00 +17°C° 0 mm 3 m/s 752 mmHg 87%
22:00 +17°C° 0 mm 3 m/s 752 mmHg 87%
23:00 +17°C° 0 mm 3 m/s 752 mmHg 88%

14 Mai, Vineri

Timp Temperatura Precipitaţii Vânt Presiune Umiditate
00:00 +17°C° 0 mm 3 m/s 752 mmHg 88%
01:00 +16°C° 0 mm 3 m/s 752 mmHg 89%
02:00 +14°C° 0 mm 3 m/s 752 mmHg 90%
03:00 +14°C° 0 mm 3 m/s 752 mmHg 91%
04:00 +14°C° 0 mm 3 m/s 752 mmHg 90%
05:00 +14°C° 0 mm 3 m/s 752 mmHg 88%
06:00 +14°C° 0 mm 3 m/s 752 mmHg 86%
07:00 +17°C° 0 mm 3 m/s 752 mmHg 80%
08:00 +19°C° 0 mm 4 m/s 752 mmHg 75%
09:00 +21°C° 0 mm 4 m/s 752 mmHg 69%
10:00 +22°C° 0 mm 4 m/s 752 mmHg 66%
11:00 +23°C° 0 mm 5 m/s 752 mmHg 63%
12:00 +26°C° 0 mm 5 m/s 752 mmHg 60%
13:00 +26°C° 0 mm 5 m/s 752 mmHg 58%
14:00 +27°C° 0 mm 6 m/s 752 mmHg 57%
15:00 +27°C° 0 mm 6 m/s 752 mmHg 56%
16:00 +27°C° 0 mm 6 m/s 751 mmHg 59%
17:00 +26°C° 0 mm 5 m/s 751 mmHg 62%
18:00 +25°C° 0 mm 5 m/s 751 mmHg 65%
19:00 +22°C° 0 mm 4 m/s 751 mmHg 71%
20:00 +21°C° 0 mm 4 m/s 751 mmHg 77%
21:00 +19°C° 0 mm 3 m/s 751 mmHg 82%
22:00 +19°C° 0 mm 3 m/s 751 mmHg 83%
23:00 +18°C° 0 mm 4 m/s 751 mmHg 83%
Arată mai mult

Formular de consimțământ

Meteoprog și furnizorii noștri de servicii pot stoca și accesa date personale, precum cookies, identificatori de dispozitiv sau alte tehnologii similare pe dispozitivul dumneavoastră și procesa astfel de date pentru a personaliza conținutul și reclamele, dar și pentru a oferi caracteristici de social media și pentru a analiza traficul.

  • Stocarea și/sau accesarea informațiilor pe dispozitivul dumneavoastră

    Cookies, identificatori de dispozitiv sau alte informații pot fi stocate sau accesate pe dispozitiv în scopurile indicate mai sus.

  • Reclame și conținut personalizat, evaluarea reclamelor și a conținutului, informații despre audiențe și dezvoltarea produselor

    Reclamele și conținutul pot fi personalizate pe baza unui profil. Pot fi adăugate date suplimentare pentru a personaliza mai bine reclamele și conținutul. Performanța reclamelor și conținutului poate fi măsurată. Pot fi obținute informații despre utilizatorii care au văzut reclamele și conținutul. Aceste date pot fi utilizate pentru a dezvolta sau îmbunătăți experiența utilizatorilor, sistemele și software-ul.

Dând clic pe ‘Sunt de acord’, permiteți utilizarea cookie-urilor menționate, a identificatorilor de dispozitiv, balizelor web sau altor tehnologii similare. Setările pot fi modificate din browser-ul dispozitivului dumneavoastră.

În anumite scopuri, interesele legitime pot prima asupra consimțământului. Puteți citi mai multe informații în acest sens în Politica privind Confidențialitatea Datelor și Cookie.